STARLINK-1937 (46773 NORAD) Tracking and Keplerian Element Data

This shows tracking and keplerian element data for the satellite.

Feedback or suggestion? Click here.




ElementValue
Catalog46773
NameSTARLINK-1937
Epoch Orbit1359
Epoch Day17.91667824
Epoch Year2021
RAAN121.7905
Inclination53.0537
Eccentricity0.000137
Argument of Perigee83.4074
Mean Anonmoly70.9585
Mean Motion15.06412295
Decay Rate-0.00031064
L11 46773U 20074AL 21017.91667824 -.00031064 00000-0 -20750-2 0 9996
L22 46773 53.0537 121.7905 0001370 83.4074 70.9585 15.06412295 13591

Live tracking and technical data element details for STARLINK-1937 (NORAD 46773). STARLINK-1937 can be tracked NOW for your location showing map with azimuth and elevation plus other details from your city location.

Track the satellite on the map from your city or location and see movement details for azimuth, elevation, latitude, longitude, range, height, and movement on the map or in text.







IsCatalogInMostPopularTable: catalog: 46773, numindb: 26
Update: records affected: 1



GetName: 46773 STARLINK-1937

Hit Count: updated at: Mon, 18 Jan 2021 16:26:15 GMT